"Pseudo-MPEC" for P12pwxf

Created 2026 Sep 5 9:35:12 UT using Find_Orb

Click here for an explanation of pseudo-MPECs

 
 Astrometry: 
     P12pwxf*0C2026 09 03.32397721 11 39.770-37 39 51.56   ~93C5 21.39wXNEOCPF51
     P12pwxf 0C2026 09 03.33436921 11 40.651-37 39 32.68   ~93C5 21.52wXNEOCPF51
     P12pwxf 0C2026 09 03.34477921 11 41.533-37 39 13.84   ~93C5 21.67wXNEOCPF51

Station data:
(F51) Pan-STARRS 1, Haleakala  (N20.707234 W156.255910)  US/Hawaii.
   Observers J. Herman, T. Lowe, P. Minguez, A. Schultz, I. Smith. Measurers
   K. Chambers, T. de Boer, J. Fairlamb, H. Gao, M. Huber, C.-C. Lin, E.
   Magnier, Y. Ramanjooloo, R. Wainscoat, R. Weryk. 1.8-m Ritchey-Chrétien +
   CCD.

Orbital elements:  P12pwxf
   Perihelion 2026 Jul 15.110352 +/- 37.6 TT =  2:38:54.4 (JD 2461236.610352)
Epoch 2026 Sep  3.0 TT = JDT 2461286.5   Earth MOID: 0.1429   Ma: 0.0257
M  25.901096594 +/- 28              (J2000 ecliptic)             AutoNEOCP
n   0.519167755 +/- 0.395           Peri.  244.460733 +/- 110
a   1.533195638 +/- 0.777           Node    46.628384 +/- 60
e   0.25553531 +/- 0.253            Incl.    4.198749 +/- 11
P   1.898/693.404d         H 22.77  G  0.15   U 12.1  SR
q 1.141410008 +/- 0.394    Q 1.924981267 +/- 41.2
From 3 observations 2026 Sept. 3 (30.0 min); mean residual 0".03
Residuals in arcseconds: 
260903 F51  .00   .03-    260903 F51  .01-  .05+    260903 F51  .00   .03-    

Ephemerides (geocentric):
Date (UTC) HH   RA             Dec           delta  r     elong  mag " sig PA
---- --------  ------------   ------------  ------ ------ -----  --- --------
2026 09 05 10  21 15 11.290   -36 35 22.84  .24869 1.2150 142.5 21.5 2427 115
2026 09 05 11  21 15 15.474   -36 34 06.64  .24885 1.2151 142.5 21.5 2513 115
2026 09 05 12  21 15 19.657   -36 32 50.45  .24901 1.2152 142.5 21.5 2603 116
2026 09 05 13  21 15 23.838   -36 31 34.27  .24917 1.2154 142.5 21.5 2697 116
2026 09 05 14  21 15 28.018   -36 30 18.10  .24933 1.2155 142.5 21.5 2795 116
2026 09 05 15  21 15 32.196   -36 29 01.95  .24949 1.2156 142.5 21.5 2896 117
2026 09 05 16  21 15 36.373   -36 27 45.80  .24965 1.2157 142.4 21.5 3003 117
2026 09 05 17  21 15 40.548   -36 26 29.66  .24981 1.2158 142.4 21.5 3114 117
2026 09 05 18  21 15 44.722   -36 25 13.53  .24997 1.2159 142.4 21.5 3231 118
2026 09 05 19  21 15 48.894   -36 23 57.41  .25013 1.2160 142.4 21.5 3353 118
2026 09 05 20  21 15 53.065   -36 22 41.31  .25029 1.2161 142.4 21.5 3482 118
2026 09 05 21  21 15 57.234   -36 21 25.21  .25046 1.2162 142.4 21.5 3617 119
2026 09 05 22  21 16 01.402   -36 20 09.13  .25062 1.2163 142.4 21.5 3761 119
2026 09 05 23  21 16 05.568   -36 18 53.05  .25078 1.2164 142.4 21.5 3913 120
2026 09 06 00  21 16 09.733   -36 17 36.99  .25094 1.2166 142.4 21.5 4074 120
2026 09 06 01  21 16 13.896   -36 16 20.93  .25110 1.2167 142.4 21.5 4246 121
2026 09 06 02  21 16 18.058   -36 15 04.89  .25126 1.2168 142.4 21.5 4429 121
2026 09 06 03  21 16 22.218   -36 13 48.86  .25143 1.2169 142.3 21.5 4625 122
2026 09 06 04  21 16 26.377   -36 12 32.83  .25159 1.2170 142.3 21.5 4836 122
2026 09 06 05  21 16 30.535   -36 11 16.82  .25175 1.2171 142.3 21.5 5064 123
2026 09 06 06  21 16 34.691   -36 10 00.82  .25191 1.2172 142.3 21.5 5310 123
2026 09 06 07  21 16 38.846   -36 08 44.83  .25208 1.2173 142.3 21.5 5577 124
2026 09 06 08  21 16 42.999   -36 07 28.86  .25224 1.2174 142.3 21.5 5869 124
2026 09 06 09  21 16 47.151   -36 06 12.89  .25240 1.2175 142.3 21.5 6188 125
2026 09 06 10  21 16 51.301   -36 04 56.93  .25257 1.2177 142.3 21.5 6541 126
2026 09 06 11  21 16 55.451   -36 03 40.99  .25273 1.2178 142.3 21.5 6931 126
2026 09 06 12  21 16 59.598   -36 02 25.06  .25289 1.2179 142.3 21.5 7365 127
2026 09 06 13  21 17 03.745   -36 01 09.13  .25306 1.2180 142.3 21.5 7851 128
2026 09 06 14  21 17 07.890   -35 59 53.22  .25322 1.2181 142.2 21.5 8400 129
2026 09 06 15  21 17 12.033   -35 58 37.32  .25339 1.2182 142.2 21.5 9022 129
2026 09 06 16  21 17 16.175   -35 57 21.44  .25355 1.2183 142.2 21.5 9732 130
2026 09 06 17  21 17 20.316   -35 56 05.56  .25371 1.2184 142.2 21.5 176' 131
2026 09 06 18  21 17 24.456   -35 54 49.70  .25388 1.2185 142.2 21.5 192' 132
2026 09 06 19  21 17 28.594   -35 53 33.84  .25404 1.2187 142.2 21.5 210' 133
2026 09 06 20  21 17 32.731   -35 52 18.00  .25421 1.2188 142.2 21.5 232' 134
2026 09 06 21  21 17 36.866   -35 51 02.17  .25437 1.2189 142.2 21.5 257' 136
2026 09 06 22  21 17 41.001   -35 49 46.36  .25454 1.2190 142.2 21.5 287' 137
2026 09 06 23  21 17 45.133   -35 48 30.55  .25470 1.2191 142.2 21.5 321' 138
2026 09 07 00  21 17 49.265   -35 47 14.76  .25487 1.2192 142.2 21.5 362' 139
2026 09 07 01  21 17 53.395   -35 45 58.98  .25504 1.2193 142.1 21.5 407' 139
2026 09 07 02  21 17 57.524   -35 44 43.21  .25520 1.2194 142.1 21.5 456' 140
2026 09 07 03  21 18 01.652   -35 43 27.45  .25537 1.2195 142.1 21.5 507' 139
2026 09 07 04  21 18 05.778   -35 42 11.70  .25553 1.2197 142.1 21.6 559' 139
2026 09 07 05  21 18 09.904   -35 40 55.97  .25570 1.2198 142.1 21.6 608' 138
2026 09 07 06  21 18 14.027   -35 39 40.25  .25587 1.2199 142.1 21.6 653' 137
2026 09 07 07  21 18 18.150   -35 38 24.54  .25603 1.2200 142.1 21.6 693' 135
2026 09 07 08  21 18 22.271   -35 37 08.84  .25620 1.2201 142.1 21.6 729' 134
2026 09 07 09  21 18 26.391   -35 35 53.16  .25637 1.2202 142.1 21.6 759' 132